Time,TemperatureF,DewpointF,PressureIn,WindDirection,WindDirectionDegrees,WindSpeedMPH,WindSpeedGustMPH,Humidity,HourlyPrecipIn,Conditions,Clouds,dailyrainin,SolarRadiationWatts/m^2,SoftwareType,DateUTC
2017-10-20 00:13:00,58.6,55.0,29.88,SW,215,11.0,22.0,87,0.06,,,0.05,0,weatherlink.com 1.10,2017-10-20 07:13:00,
2017-10-20 00:28:00,55.4,52.0,29.89,SW,228,2.0,22.0,87,0.08,,,0.07,0,weatherlink.com 1.10,2017-10-20 07:28:00,
2017-10-20 00:43:00,54.1,51.0,29.90,SW,236,8.0,16.0,89,0.10,,,0.09,0,weatherlink.com 1.10,2017-10-20 07:43:00,
2017-10-20 00:58:00,53.6,51.0,29.91,WSW,240,11.0,16.0,90,0.11,,,0.11,0,weatherlink.com 1.10,2017-10-20 07:58:00,
2017-10-20 01:13:00,53.1,50.0,29.92,WSW,242,4.0,22.0,89,0.06,,,0.12,0,weatherlink.com 1.10,2017-10-20 08:13:00,
2017-10-20 01:28:00,52.8,50.0,29.92,WSW,238,7.0,11.0,90,0.06,,,0.13,0,weatherlink.com 1.10,2017-10-20 08:28:00,
2017-10-20 01:43:00,52.6,50.0,29.92,WSW,245,1.0,8.0,90,0.04,,,0.13,0,weatherlink.com 1.10,2017-10-20 08:43:00,
2017-10-20 01:58:00,52.4,50.0,29.92,West,269,2.0,5.0,91,0.03,,,0.14,0,weatherlink.com 1.10,2017-10-20 08:58:00,
2017-10-20 02:13:00,52.3,50.0,29.92,SSW,213,1.0,6.0,91,0.02,,,0.14,0,weatherlink.com 1.10,2017-10-20 09:13:00,
2017-10-20 02:28:00,52.2,50.0,29.93,South,187,0.0,6.0,91,0.01,,,0.14,0,weatherlink.com 1.10,2017-10-20 09:28:00,
2017-10-20 02:43:00,52.1,50.0,29.94,South,169,2.0,2.0,91,0.01,,,0.14,0,weatherlink.com 1.10,2017-10-20 09:43:00,
2017-10-20 02:58:00,52.1,50.0,29.95,NNW,339,0.0,0.0,92,0.00,,,0.14,0,weatherlink.com 1.10,2017-10-20 09:58:00,
2017-10-20 03:13:00,52.1,50.0,29.96,NNW,327,0.0,0.0,92,0.00,,,0.14,0,weatherlink.com 1.10,2017-10-20 10:13:00,
2017-10-20 03:28:00,52.1,50.0,29.96,North,5,0.0,0.0,92,0.00,,,0.14,0,weatherlink.com 1.10,2017-10-20 10:28:00,
2017-10-20 03:43:00,52.0,50.0,29.97,East,82,0.0,0.0,92,0.00,,,0.14,0,weatherlink.com 1.10,2017-10-20 10:43:00,
2017-10-20 03:58:00,52.1,50.0,29.97,SSW,193,1.0,5.0,92,0.00,,,0.14,0,weatherlink.com 1.10,2017-10-20 10:58:00,
2017-10-20 04:13:00,51.9,50.0,29.98,NW,313,2.0,3.0,93,0.00,,,0.14,0,weatherlink.com 1.10,2017-10-20 11:13:00,
2017-10-20 04:28:00,51.5,49.0,29.99,WSW,257,0.0,3.0,92,0.00,,,0.14,0,weatherlink.com 1.10,2017-10-20 11:28:00,
2017-10-20 04:43:00,51.2,49.0,29.99,WNW,291,0.0,2.0,92,0.00,,,0.14,0,weatherlink.com 1.10,2017-10-20 11:43:00,
2017-10-20 04:58:00,51.1,49.0,30.00,NNW,331,4.0,4.0,92,0.00,,,0.14,0,weatherlink.com 1.10,2017-10-20 11:58:00,
2017-10-20 05:13:00,51.1,49.0,30.00,NW,319,0.0,2.0,92,0.00,,,0.14,0,weatherlink.com 1.10,2017-10-20 12:13:00,
2017-10-20 05:28:00,50.9,49.0,30.01,NW,319,0.0,0.0,92,0.00,,,0.14,0,weatherlink.com 1.10,2017-10-20 12:28:00,
2017-10-20 05:43:00,50.4,48.0,30.00,NE,36,0.0,0.0,92,0.00,,,0.14,0,weatherlink.com 1.10,2017-10-20 12:43:00,
2017-10-20 05:58:00,50.2,48.0,30.00,East,90,0.0,3.0,92,0.00,,,0.14,0,weatherlink.com 1.10,2017-10-20 12:58:00,
2017-10-20 06:13:00,50.1,48.0,30.03,ESE,116,0.0,0.0,93,0.00,,,0.14,0,weatherlink.com 1.10,2017-10-20 13:13:00,
2017-10-20 06:28:00,49.7,48.0,30.02,ESE,107,0.0,0.0,93,0.00,,,0.14,0,weatherlink.com 1.10,2017-10-20 13:28:00,
2017-10-20 06:43:00,49.7,48.0,30.03,ESE,108,0.0,0.0,93,0.00,,,0.14,0,weatherlink.com 1.10,2017-10-20 13:43:00,
2017-10-20 06:58:00,49.6,48.0,30.03,East,87,1.0,3.0,93,0.00,,,0.14,0,weatherlink.com 1.10,2017-10-20 13:58:00,
2017-10-20 07:14:00,49.6,48.0,30.03,East,87,0.0,0.0,94,0.00,,,0.14,0,weatherlink.com 1.10,2017-10-20 14:14:00,
2017-10-20 07:28:00,49.6,48.0,30.04,East,87,0.0,0.0,94,0.00,,,0.14,11,weatherlink.com 1.10,2017-10-20 14:28:00,
2017-10-20 07:44:00,49.7,48.0,30.05,East,89,0.0,1.0,94,0.01,,,0.15,21,weatherlink.com 1.10,2017-10-20 14:44:00,
2017-10-20 07:58:00,49.9,48.0,30.05,NE,48,0.0,2.0,94,0.01,,,0.15,32,weatherlink.com 1.10,2017-10-20 14:58:00,
2017-10-20 08:14:00,50.2,49.0,30.05,NE,39,0.0,3.0,95,0.01,,,0.15,49,weatherlink.com 1.10,2017-10-20 15:14:00,
2017-10-20 08:29:00,50.7,49.0,30.06,NE,54,0.0,4.0,95,0.01,,,0.15,81,weatherlink.com 1.10,2017-10-20 15:29:00,
2017-10-20 08:44:00,51.5,50.0,30.07,NE,55,0.0,2.0,95,0.00,,,0.15,156,weatherlink.com 1.10,2017-10-20 15:44:00,
2017-10-20 08:59:00,51.9,50.0,30.08,East,88,2.0,3.0,94,0.00,,,0.15,84,weatherlink.com 1.10,2017-10-20 15:59:00,
2017-10-20 09:14:00,52.4,51.0,30.07,East,88,0.0,0.0,94,0.00,,,0.15,258,weatherlink.com 1.10,2017-10-20 16:14:00,
2017-10-20 09:29:00,53.2,51.0,30.07,NE,42,0.0,2.0,93,0.00,,,0.15,141,weatherlink.com 1.10,2017-10-20 16:29:00,
2017-10-20 09:44:00,54.1,52.0,30.07,NE,53,0.0,2.0,91,0.00,,,0.15,350,weatherlink.com 1.10,2017-10-20 16:44:00,
2017-10-20 09:59:00,55.2,52.0,30.08,East,82,0.0,3.0,89,0.00,,,0.15,399,weatherlink.com 1.10,2017-10-20 16:59:00,
2017-10-20 10:14:00,56.6,52.0,30.08,South,169,2.0,6.0,84,0.00,,,0.15,225,weatherlink.com 1.10,2017-10-20 17:14:00,
2017-10-20 10:29:00,56.9,52.0,30.08,South,188,5.0,7.0,82,0.00,,,0.15,371,weatherlink.com 1.10,2017-10-20 17:29:00,
2017-10-20 10:44:00,57.4,51.0,30.09,South,186,5.0,8.0,78,0.00,,,0.15,779,weatherlink.com 1.10,2017-10-20 17:44:00,
2017-10-20 10:59:00,58.3,50.0,30.09,WSW,240,2.0,8.0,75,0.00,,,0.15,468,weatherlink.com 1.10,2017-10-20 17:59:00,
2017-10-20 11:14:00,58.7,50.0,30.09,South,186,3.0,4.0,73,0.00,,,0.15,246,weatherlink.com 1.10,2017-10-20 18:14:00,
2017-10-20 11:29:00,58.8,50.0,30.09,South,189,2.0,8.0,72,0.00,,,0.15,373,weatherlink.com 1.10,2017-10-20 18:29:00,
2017-10-20 11:44:00,59.8,50.0,30.10,SW,220,1.0,9.0,69,0.00,,,0.15,199,weatherlink.com 1.10,2017-10-20 18:44:00,
2017-10-20 11:59:00,59.7,49.0,30.10,WSW,239,2.0,5.0,69,0.00,,,0.15,408,weatherlink.com 1.10,2017-10-20 18:59:00,
2017-10-20 12:14:00,59.6,49.0,30.09,WSW,240,0.0,3.0,67,0.00,,,0.15,190,weatherlink.com 1.10,2017-10-20 19:14:00,
2017-10-20 12:29:00,60.0,49.0,30.09,SSW,197,0.0,3.0,66,0.00,,,0.15,251,weatherlink.com 1.10,2017-10-20 19:29:00,
2017-10-20 12:44:00,60.1,48.0,30.10,SSE,159,2.0,8.0,65,0.00,,,0.15,202,weatherlink.com 1.10,2017-10-20 19:44:00,
2017-10-20 12:59:00,60.1,48.0,30.09,WSW,238,2.0,7.0,64,0.00,,,0.15,387,weatherlink.com 1.10,2017-10-20 19:59:00,
2017-10-20 13:14:00,61.8,48.0,30.09,SSW,196,7.0,11.0,62,0.00,,,0.15,594,weatherlink.com 1.10,2017-10-20 20:14:00,
2017-10-20 13:29:00,62.3,48.0,30.09,South,188,1.0,9.0,60,0.00,,,0.15,621,weatherlink.com 1.10,2017-10-20 20:29:00,
2017-10-20 13:44:00,61.7,48.0,30.09,SSE,163,7.0,10.0,61,0.00,,,0.15,694,weatherlink.com 1.10,2017-10-20 20:44:00,
2017-10-20 13:59:00,61.8,48.0,30.09,SW,228,2.0,14.0,61,0.00,,,0.15,844,weatherlink.com 1.10,2017-10-20 20:59:00,
2017-10-20 14:14:00,62.7,48.0,30.09,WSW,240,2.0,14.0,60,0.00,,,0.15,731,weatherlink.com 1.10,2017-10-20 21:14:00,
2017-10-20 14:29:00,62.5,49.0,30.08,SSW,200,3.0,8.0,61,0.00,,,0.15,489,weatherlink.com 1.10,2017-10-20 21:29:00,
2017-10-20 14:44:00,63.6,48.0,30.07,SW,219,3.0,11.0,57,0.00,,,0.15,584,weatherlink.com 1.10,2017-10-20 21:44:00,
2017-10-20 14:59:00,63.3,47.0,30.08,SW,230,5.0,12.0,55,0.00,,,0.15,619,weatherlink.com 1.10,2017-10-20 21:59:00,
2017-10-20 15:15:00,63.4,47.0,30.08,SSW,192,5.0,10.0,56,0.00,,,0.15,339,weatherlink.com 1.10,2017-10-20 22:15:00,
2017-10-20 15:29:00,61.9,47.0,30.08,SE,135,3.0,11.0,58,0.00,,,0.15,181,weatherlink.com 1.10,2017-10-20 22:29:00,
2017-10-20 15:59:00,61.6,47.0,30.09,South,179,4.0,10.0,60,0.00,,,0.15,439,weatherlink.com 1.10,2017-10-20 22:59:00,
2017-10-20 16:14:00,61.6,48.0,30.10,SSE,155,4.0,10.0,61,0.00,,,0.15,183,weatherlink.com 1.10,2017-10-20 23:14:00,
2017-10-20 16:29:00,60.5,48.0,30.09,South,176,2.0,11.0,63,0.00,,,0.15,130,weatherlink.com 1.10,2017-10-20 23:29:00,
2017-10-20 16:44:00,60.6,47.0,30.09,SSW,200,3.0,9.0,61,0.00,,,0.15,195,weatherlink.com 1.10,2017-10-20 23:44:00,
2017-10-20 16:59:00,60.3,47.0,30.09,SSW,198,2.0,7.0,62,0.00,,,0.15,134,weatherlink.com 1.10,2017-10-20 23:59:00,
2017-10-20 17:14:00,59.5,48.0,30.09,South,186,2.0,12.0,65,0.00,,,0.15,128,weatherlink.com 1.10,2017-10-21 00:14:00,
2017-10-20 17:29:00,59.1,48.0,30.10,South,172,10.0,13.0,67,0.00,,,0.15,72,weatherlink.com 1.10,2017-10-21 00:29:00,
2017-10-20 17:45:00,58.5,48.0,30.09,SSW,192,0.0,9.0,69,0.00,,,0.15,39,weatherlink.com 1.10,2017-10-21 00:45:00,
2017-10-20 18:00:00,57.9,49.0,30.09,SSW,212,3.0,8.0,71,0.00,,,0.15,25,weatherlink.com 1.10,2017-10-21 01:00:00,
2017-10-20 18:15:00,57.2,48.0,30.09,South,182,0.0,7.0,72,0.00,,,0.15,11,weatherlink.com 1.10,2017-10-21 01:15:00,
2017-10-20 18:29:00,56.5,48.0,30.10,SW,224,3.0,10.0,74,0.00,,,0.15,0,weatherlink.com 1.10,2017-10-21 01:29:00,
2017-10-20 18:45:00,55.9,48.0,30.11,SSW,197,1.0,8.0,75,0.00,,,0.15,0,weatherlink.com 1.10,2017-10-21 01:45:00,
2017-10-20 18:59:00,55.6,48.0,30.11,West,281,0.0,4.0,76,0.00,,,0.15,0,weatherlink.com 1.10,2017-10-21 01:59:00,
2017-10-20 19:14:00,55.2,48.0,30.11,South,179,0.0,3.0,76,0.00,,,0.15,0,weatherlink.com 1.10,2017-10-21 02:14:00,
2017-10-20 19:30:00,55.0,48.0,30.11,WNW,286,0.0,2.0,77,0.00,,,0.15,0,weatherlink.com 1.10,2017-10-21 02:30:00,
2017-10-20 19:44:00,54.7,48.0,30.11,SW,225,0.0,2.0,77,0.00,,,0.15,0,weatherlink.com 1.10,2017-10-21 02:44:00,
2017-10-20 19:59:00,54.4,47.0,30.11,SW,227,0.0,5.0,77,0.00,,,0.15,0,weatherlink.com 1.10,2017-10-21 02:59:00,
2017-10-20 20:22:00,54.1,47.0,30.11,SW,231,0.0,2.0,78,0.00,,,0.15,0,weatherlink.com 1.10,2017-10-21 03:22:00,
2017-10-20 20:34:00,53.7,47.0,30.12,South,174,0.0,2.0,77,0.00,,,0.15,0,weatherlink.com 1.10,2017-10-21 03:34:00,
2017-10-20 20:45:00,53.4,46.0,30.12,SSE,158,1.0,2.0,77,0.00,,,0.15,0,weatherlink.com 1.10,2017-10-21 03:45:00,
2017-10-20 21:00:00,53.2,47.0,30.12,South,174,0.0,1.0,78,0.00,,,0.15,0,weatherlink.com 1.10,2017-10-21 04:00:00,
2017-10-20 21:15:00,52.9,46.0,30.13,East,86,1.0,2.0,78,0.00,,,0.15,0,weatherlink.com 1.10,2017-10-21 04:15:00,